Weather History for Orangeburg, SC

Change the Weather History Date:

Wednesday, February 26, 2014

  Actual Average Record
Temperature  
Mean Temperature 48 °F 52 °F  
Max Temperature 57 °F 64 °F 78 °F (2001)
Min Temperature 38 °F 40 °F 12 °F (1967)
Degree Days  
Heating Degree Days 17 13  
Month to date heating degree days 327 409  
Since 1 July heating degree days 1824 1906  
Cooling Degree Days 0 0  
Month to date cooling degree days 6 0  
Year to date cooling degree days 6 1  
Moisture  
Dew Point 42 °F    
Average Humidity 85    
Maximum Humidity 93    
Minimum Humidity 62    
Precipitation  
Precipitation 0.41 in 0.16 in 2.12 in (2004)
Month to date precipitation 3.76 3.29  
Year to date precipitation 5.92 7.27  
Sea Level Pressure  
Sea Level Pressure 29.85 in    
Wind  
Wind Speed 4 mph (North)    
Max Wind Speed 13 mph    
Max Gust Speed 17 mph    
Visibility 7 miles    
Events Rain    
T = Trace of Precipitation, MM = Missing Value Source: NWS Daily Summary

Daily Weather History Graph

Daily Weather History Graph

Search for Another Location

Airport:

Trip Planner

Search our weather history database for the weather conditions in past years. The results will help you decide how hot, cold, wet, or windy it might be!

Date:

Astronomy

Feb. 26, 2014 Rise Set
Actual Time 6:55 AM EST 6:17 PM EST
Civil Twilight 6:30 AM EST 6:42 PM EST
Nautical Twilight 6:01 AM EST 7:11 PM EST
Astronomical Twilight 5:32 AM EST 7:40 PM EST
Moon 4:33 AM EST (2/26) 3:36 PM EST (2/26)
Length of Visible Light 12h 12m
Length of Day
11h 22m
Waning Crescent, 10% of the Moon is Illuminated
Feb 26
Waning Crescent
Mar 1
New
Mar 8
First Quarter
Mar 16
Full
Mar 23
Last Quarter

Hourly Weather History & Observations

Time (EST) Temp. Windchill Dew Point Humidity Pressure Visibility Wind Dir Wind Speed Gust Speed Precip Events Conditions
12:53 AM 55.0 °F - 46.0 °F 72% 29.90 in 10.0 mi Calm Calm - N/A   Mostly Cloudy
1:53 AM 53.1 °F - 46.9 °F 80% 29.90 in 10.0 mi WSW 3.5 mph - N/A   Mostly Cloudy
2:53 AM 52.0 °F - 45.0 °F 77% 29.86 in 10.0 mi Calm Calm - N/A   Partly Cloudy
3:53 AM 48.9 °F - 45.0 °F 86% 29.84 in 10.0 mi Calm Calm - N/A   Clear
4:53 AM 50.0 °F - 45.0 °F 83% 29.83 in 10.0 mi Calm Calm - N/A   Mostly Cloudy
5:53 AM 51.1 °F - 46.9 °F 86% 29.85 in 7.0 mi Calm Calm - 0.00 in Rain Light Rain
6:53 AM 51.1 °F - 48.9 °F 92% 29.85 in 6.0 mi Calm Calm - 0.02 in Rain Light Rain
7:53 AM 51.1 °F - 46.0 °F 83% 29.87 in 5.0 mi NNW 5.8 mph - 0.05 in Rain Light Rain
8:53 AM 50.0 °F - 45.0 °F 83% 29.89 in 5.0 mi North 3.5 mph - 0.08 in Rain Light Rain
9:15 AM 48.9 °F - 45.0 °F 86% 29.89 in 2.5 mi NNW 4.6 mph - 0.05 in Rain Rain
9:41 AM 48.9 °F - 46.0 °F 90% 29.89 in 3.0 mi West 3.5 mph - 0.10 in Rain Rain
9:48 AM 48.2 °F - 46.4 °F 93% 29.90 in 4.0 mi NW 6.9 mph - 0.11 in Rain Light Rain
9:53 AM 48.9 °F - 46.0 °F 90% 29.89 in 4.0 mi NW 4.6 mph - 0.11 in Rain Rain
10:00 AM 48.9 °F - 46.0 °F 90% 29.89 in 2.5 mi WNW 5.8 mph - 0.02 in Rain Rain
10:09 AM 48.9 °F - 45.0 °F 86% 29.89 in 3.0 mi North 4.6 mph - 0.03 in Rain Rain
10:16 AM 48.9 °F - 45.0 °F 86% 29.88 in 4.0 mi Variable 5.8 mph - 0.04 in Rain Light Rain
10:31 AM 48.0 °F - 45.0 °F 89% 29.89 in 6.0 mi NNW 4.6 mph - 0.05 in Rain Light Rain
10:35 AM 48.0 °F - 45.0 °F 89% 29.89 in 5.0 mi NW 4.6 mph - 0.06 in Rain Light Rain
10:45 AM 48.0 °F - 45.0 °F 89% 29.88 in 5.0 mi Calm Calm - 0.07 in Rain Light Rain
10:53 AM 48.0 °F - 44.1 °F 86% 29.89 in 4.0 mi NW 5.8 mph - 0.08 in Rain Rain
11:27 AM 48.0 °F - 45.0 °F 89% 29.88 in 6.0 mi NNW 3.5 mph - 0.02 in Rain Light Rain
11:45 AM 48.0 °F - 44.1 °F 86% 29.88 in 9.0 mi Variable 5.8 mph - 0.03 in Rain Light Rain
11:53 AM 48.0 °F - 43.0 °F 83% 29.87 in 10.0 mi NNW 9.2 mph - 0.03 in Rain Light Rain
12:30 PM 48.0 °F - 44.1 °F 86% 29.85 in 6.0 mi WNW 4.6 mph - 0.02 in Rain Light Rain
12:45 PM 48.0 °F - 44.1 °F 86% 29.84 in 7.0 mi North 3.5 mph - 0.02 in Rain Light Rain
12:53 PM 48.0 °F - 44.1 °F 86% 29.83 in 8.0 mi Calm Calm - 0.02 in Rain Light Rain
1:53 PM 46.0 °F 41.9 °F 43.0 °F 89% 29.80 in 5.0 mi NE 8.1 mph - 0.01 in Rain Light Rain
2:08 PM 46.0 °F 41.9 °F 43.0 °F 89% 29.79 in 5.0 mi NE 8.1 mph - 0.01 in Rain Light Rain
2:37 PM 45.0 °F 41.2 °F 42.1 °F 90% 29.79 in 8.0 mi NNE 6.9 mph - 0.01 in   Overcast
2:53 PM 44.1 °F 40.1 °F 41.0 °F 89% 29.77 in 9.0 mi ENE 6.9 mph - 0.01 in   Overcast
3:09 PM 44.1 °F 39.0 °F 41.0 °F 89% 29.79 in 7.0 mi NNE 9.2 mph - N/A   Overcast
3:22 PM 44.1 °F 39.0 °F 41.0 °F 89% 29.79 in 7.0 mi NNE 9.2 mph - N/A   Overcast
3:53 PM 44.1 °F 39.0 °F 39.9 °F 85% 29.80 in 7.0 mi North 9.2 mph - N/A   Overcast
4:53 PM 43.0 °F 37.2 °F 37.9 °F 82% 29.81 in 10.0 mi North 10.4 mph - N/A   Overcast
5:50 PM 42.8 °F 37.0 °F 37.4 °F 81% 29.82 in 9.0 mi NNE 10.4 mph - N/A   Overcast
5:53 PM 42.1 °F 36.1 °F 37.0 °F 82% 29.82 in 9.0 mi NNE 10.4 mph - N/A   Overcast
6:32 PM 42.1 °F 36.6 °F 36.0 °F 79% 29.82 in 10.0 mi NE 9.2 mph - N/A   Overcast
6:53 PM 42.1 °F 38.4 °F 36.0 °F 79% 29.83 in 10.0 mi NE 5.8 mph - N/A   Overcast
7:07 PM 41.0 °F 39.0 °F 36.0 °F 82% 29.82 in 10.0 mi East 3.5 mph - N/A   Overcast
7:53 PM 42.1 °F 39.2 °F 35.1 °F 76% 29.84 in 10.0 mi ENE 4.6 mph - N/A   Overcast
8:48 PM 42.8 °F 40.1 °F 35.6 °F 76% 29.85 in 10.0 mi NE 4.6 mph - N/A   Overcast
8:53 PM 42.1 °F 38.4 °F 35.1 °F 76% 29.86 in 10.0 mi ENE 5.8 mph - N/A   Overcast
9:23 PM 42.1 °F 39.2 °F 35.1 °F 76% 29.87 in 10.0 mi NE 4.6 mph - N/A   Overcast
9:35 PM 42.1 °F 40.2 °F 35.1 °F 76% 29.87 in 10.0 mi ENE 3.5 mph - N/A   Overcast
9:53 PM 42.1 °F - 36.0 °F 79% 29.87 in 10.0 mi Calm Calm - N/A   Overcast
10:53 PM 39.0 °F - 36.0 °F 89% 29.88 in 9.0 mi Calm Calm - N/A   Clear
11:53 PM 39.0 °F - 36.0 °F 89% 29.86 in 7.0 mi Calm Calm - N/A   Clear